Regional Weather Roundup
Issued by NWS Northern Indiana

Home | Current Version | Previous Version | Text Only | Print | Product List | Glossary Off
Versions: 1 2 3 4 5 6 7 8 9 10 11 12 13 14 15 16 17 18 19 20 21 22 23 24 25 26 27 28 29 30 31 32 33 34 35 36 37 38 39 40 41 42 43 44 45 46 47 48 49 50

000
ASUS43 KIWX 181300
RWRIWX

KIWX WEATHER ROUNDUP
NATIONAL WEATHER SERVICE NORTHERN INDIANA
900 AM EDT THU SEP 18 2014

NOTE: "FAIR" INDICATES FEW OR NO CLOUDS BELOW 12,000 FEET WITH NO
SIGNIFICANT WEATHER AND/OR OBSTRUCTIONS TO VISIBILITY.

* THESE STATIONS ARE NOT UNDER NWS QUALITY CONTROL. THEY ALSO MAY NOT
  REPORT WEATHER SUCH AS PRECIPITATION OR FOG.

INZ001>027-181400-
NORTHERN INDIANA

CITY           SKY/WX    TMP DP  RH WIND       PRES   REMARKS
GARY*          MOSUNNY   54  54 100 CALM      30.12  FOG
VALPARAISO     SUNNY     51  46  83 NE3       30.12R
KNOX*          SUNNY     45  44  95 CALM      30.11R
SOUTH BEND     SUNNY     51  46  83 CALM      30.13R
ELKHART*       SUNNY     48  46  93 CALM      30.13R
GOSHEN         SUNNY     50  48  93 CALM      30.12R FOG
WARSAW*        SUNNY     50  48  93 NE3       30.11R
ANGOLA*        SUNNY     52  46  82 NE6       30.11R
FORT WAYNE     SUNNY     52  48  86 N5        30.11R
PERU/GRISSOM   SUNNY     50  50 100 NE6       30.10R

$$
INZ028>050-181400-
CENTRAL INDIANA

CITY           SKY/WX    TMP DP  RH WIND       PRES   REMARKS
LAFAYETTE      SUNNY     50  49  96 SW3       30.10R
KOKOMO*        SUNNY     50 N/A N/A NE3       30.10R
MUNCIE*        SUNNY     51  48  89 CALM      30.09R
INDIANAPOLIS   MOSUNNY   57  49  74 CALM      30.08R

$$
MIZ043>046-050>051-056>058-064>065-071>073-077>080-181400-
SOUTHWEST LOWER MICHIGAN

CITY           SKY/WX    TMP DP  RH WIND       PRES   REMARKS
BATTLE CREEK   SUNNY     51  47  86 CALM      30.12S
BENTON HARBOR  SUNNY     49  47  93 E3        30.12R
COLDWATER*     SUNNY     51  50  97 NE5       30.12R
HILLSDALE*     SUNNY     52  50  93 NE7       30.12R
HOLLAND        SUNNY     53  47  79 E3        30.13R
GRAND RAPIDS   FOG       49  49 100 E6        30.13R VSB 1/4
KALAMAZOO      SUNNY     50  47  89 CALM      30.12R
STURGIS*       SUNNY     48  48 100 NE7       30.11R
THREE RIVERS*  FAIR      48  47  95 CALM      30.13R FOG

$$
OHZ001>008-015>018-024>025-181400-
NORTHWEST OHIO

CITY           SKY/WX    TMP DP  RH WIND       PRES   REMARKS
DEFIANCE       SUNNY     52  47  83 NE6       30.11R
FINDLAY        SUNNY     53  50  89 CALM      30.08R
TOLEDO EXPRESS SUNNY     51  47  86 N5        30.11R
TOLEDO METCALF SUNNY     55  48  77 N5        30.11R
LIMA           SUNNY     54  49  83 NE3       30.08R HAZE

$$
&&


USA.gov is the U.S. government's official web portal to all federal, state and local government web resources and services.